Time,TemperatureF,DewpointF,PressureIn,WindDirection,WindDirectionDegrees,WindSpeedMPH,WindSpeedGustMPH,Humidity,HourlyPrecipIn,Conditions,Clouds,dailyrainin,SoftwareType,DateUTC
2013-03-13 07:23:00,40.0,38.0,29.77,NW,321,0.0,5.0,91,-99.99,,,-99.99,,2013-03-13 11:23:00,
2013-03-13 07:32:00,39.0,36.0,29.77,WNW,294,0.0,9.0,90,-99.99,,,-99.99,,2013-03-13 11:32:00,
2013-03-13 07:42:00,39.0,36.0,29.77,WNW,294,0.0,9.0,90,-99.99,,,-99.99,,2013-03-13 11:42:00,
2013-03-13 07:53:00,39.0,36.0,29.77,North,360,0.0,4.0,90,-99.99,,,-99.99,,2013-03-13 11:53:00,
2013-03-13 08:02:00,39.0,36.0,29.77,West,281,2.0,7.0,89,-99.99,,,-99.99,,2013-03-13 12:02:00,
2013-03-13 08:12:00,39.0,36.0,29.77,West,281,2.0,7.0,89,-99.99,,,-99.99,,2013-03-13 12:12:00,
2013-03-13 08:22:00,39.0,36.0,29.77,NNW,330,2.0,9.0,89,0.00,,,-99.99,,2013-03-13 12:22:00,
2013-03-13 08:32:00,39.0,36.0,29.78,NW,311,3.0,16.0,88,0.00,,,-99.99,,2013-03-13 12:32:00,
2013-03-13 08:42:00,39.0,36.0,29.78,NW,311,3.0,16.0,88,0.00,,,-99.99,,2013-03-13 12:42:00,
2013-03-13 08:53:00,39.0,35.0,29.77,NNW,333,4.0,11.0,86,0.00,,,-99.99,,2013-03-13 12:53:00,
2013-03-13 09:02:00,40.0,35.0,29.77,NNW,335,6.0,11.0,82,0.00,,,-99.99,,2013-03-13 13:02:00,
2013-03-13 09:12:00,40.0,35.0,29.77,NNW,335,6.0,11.0,82,0.00,,,-99.99,,2013-03-13 13:12:00,
2013-03-13 09:22:00,41.0,35.0,29.76,West,281,6.0,14.0,80,0.00,,,-99.99,,2013-03-13 13:22:00,
2013-03-13 09:33:00,42.0,36.0,29.76,NNW,340,6.0,10.0,78,0.00,,,-99.99,,2013-03-13 13:33:00,
2013-03-13 09:43:00,42.0,36.0,29.76,NNW,340,6.0,10.0,78,0.00,,,-99.99,,2013-03-13 13:43:00,
2013-03-13 09:53:00,43.0,36.0,29.76,West,281,2.0,10.0,76,0.00,,,-99.99,,2013-03-13 13:53:00,
2013-03-13 10:02:00,44.0,36.0,29.76,NNW,340,4.0,7.0,73,0.00,,,-99.99,,2013-03-13 14:02:00,
2013-03-13 10:12:00,44.0,36.0,29.76,NNW,340,4.0,7.0,73,0.00,,,-99.99,,2013-03-13 14:12:00,
2013-03-13 10:22:00,45.0,37.0,29.76,NNW,346,3.0,10.0,72,0.00,,,-99.99,,2013-03-13 14:22:00,
2013-03-13 10:33:00,45.0,36.0,29.76,WSW,257,4.0,8.0,70,0.00,,,-99.99,,2013-03-13 14:33:00,
2013-03-13 10:42:00,45.0,36.0,29.76,WSW,257,4.0,8.0,70,0.00,,,-99.99,,2013-03-13 14:42:00,
2013-03-13 10:53:00,45.0,36.0,29.75,WNW,291,1.0,10.0,71,0.00,,,-99.99,,2013-03-13 14:53:00,
2013-03-13 11:03:00,45.0,35.0,29.74,WNW,292,3.0,10.0,68,0.00,,,-99.99,,2013-03-13 15:03:00,
2013-03-13 11:12:00,45.0,35.0,29.74,WNW,292,3.0,10.0,68,0.00,,,-99.99,,2013-03-13 15:12:00,
2013-03-13 11:22:00,47.0,37.0,29.75,NW,309,0.0,7.0,68,0.00,,,-99.99,,2013-03-13 15:22:00,
2013-03-13 11:32:00,47.0,36.0,29.75,West,271,4.0,12.0,65,0.00,,,-99.99,,2013-03-13 15:32:00,
2013-03-13 11:42:00,47.0,36.0,29.75,West,271,4.0,12.0,65,0.00,,,-99.99,,2013-03-13 15:42:00,
2013-03-13 11:53:00,48.0,37.0,29.75,NW,325,1.0,12.0,66,0.00,,,-99.99,,2013-03-13 15:53:00,
2013-03-13 12:03:00,48.0,36.0,29.75,NNW,346,3.0,9.0,64,0.00,,,-99.99,,2013-03-13 16:03:00,
2013-03-13 12:12:00,48.0,36.0,29.75,NNW,346,3.0,9.0,64,0.00,,,-99.99,,2013-03-13 16:12:00,
2013-03-13 12:22:00,47.0,36.0,29.75,WNW,298,1.0,14.0,65,0.00,,,-99.99,,2013-03-13 16:22:00,
2013-03-13 12:32:00,48.0,36.0,29.75,West,278,5.0,12.0,62,0.00,,,-99.99,,2013-03-13 16:32:00,
2013-03-13 12:42:00,48.0,36.0,29.75,West,278,5.0,12.0,62,0.00,,,-99.99,,2013-03-13 16:42:00,
2013-03-13 12:52:00,48.0,35.0,29.75,WNW,286,2.0,12.0,60,0.00,,,-99.99,,2013-03-13 16:52:00,
2013-03-13 13:02:00,48.0,34.0,29.74,West,264,1.0,10.0,59,0.00,,,-99.99,,2013-03-13 17:02:00,
2013-03-13 13:12:00,48.0,34.0,29.74,West,264,1.0,10.0,59,0.00,,,-99.99,,2013-03-13 17:12:00,
2013-03-13 13:22:00,48.0,35.0,29.73,WNW,298,1.0,10.0,60,0.00,,,-99.99,,2013-03-13 17:22:00,
2013-03-13 13:32:00,49.0,35.0,29.73,NNE,16,2.0,10.0,58,0.00,,,-99.99,,2013-03-13 17:32:00,
2013-03-13 13:42:00,49.0,35.0,29.73,NNE,16,2.0,10.0,58,0.00,,,-99.99,,2013-03-13 17:42:00,
2013-03-13 13:53:00,50.0,34.0,29.72,WNW,296,5.0,12.0,55,0.00,,,-99.99,,2013-03-13 17:53:00,
2013-03-13 14:02:00,49.0,34.0,29.72,NNW,345,4.0,10.0,55,0.00,,,-99.99,,2013-03-13 18:02:00,
2013-03-13 14:12:00,49.0,34.0,29.72,NNW,345,4.0,10.0,55,0.00,,,-99.99,,2013-03-13 18:12:00,
2013-03-13 14:22:00,51.0,36.0,29.72,NW,323,3.0,11.0,56,0.00,,,-99.99,,2013-03-13 18:22:00,
2013-03-13 14:33:00,51.0,35.0,29.71,East,84,0.0,12.0,55,0.00,,,-99.99,,2013-03-13 18:33:00,
2013-03-13 14:42:00,51.0,35.0,29.71,East,84,0.0,12.0,55,0.00,,,-99.99,,2013-03-13 18:42:00,
2013-03-13 14:52:00,52.0,34.0,29.70,NNW,329,4.0,11.0,51,0.00,,,-99.99,,2013-03-13 18:52:00,
2013-03-13 15:02:00,51.0,33.0,29.70,WNW,300,3.0,14.0,50,0.00,,,-99.99,,2013-03-13 19:02:00,
2013-03-13 15:12:00,51.0,33.0,29.70,WNW,300,3.0,14.0,50,0.00,,,-99.99,,2013-03-13 19:12:00,
2013-03-13 15:22:00,52.0,33.0,29.70,NNW,344,4.0,10.0,49,0.00,,,-99.99,,2013-03-13 19:22:00,
2013-03-13 15:32:00,51.0,32.0,29.70,NNE,24,1.0,11.0,48,0.00,,,-99.99,,2013-03-13 19:32:00,
2013-03-13 15:43:00,51.0,32.0,29.70,NNE,24,1.0,11.0,48,0.00,,,-99.99,,2013-03-13 19:43:00,
2013-03-13 15:53:00,52.0,32.0,29.70,NNW,348,3.0,11.0,47,0.00,,,-99.99,,2013-03-13 19:53:00,
2013-03-13 16:02:00,52.0,32.0,29.70,WNW,284,3.0,13.0,46,0.00,,,-99.99,,2013-03-13 20:02:00,
2013-03-13 16:12:00,52.0,32.0,29.70,WNW,284,3.0,13.0,46,0.00,,,-99.99,,2013-03-13 20:12:00,
2013-03-13 16:22:00,51.0,31.0,29.70,WNW,298,0.0,11.0,46,0.00,,,-99.99,,2013-03-13 20:22:00,
2013-03-13 16:32:00,51.0,31.0,29.70,WSW,257,1.0,9.0,46,0.00,,,-99.99,,2013-03-13 20:32:00,
2013-03-13 16:42:00,51.0,31.0,29.70,WSW,257,1.0,9.0,46,0.00,,,-99.99,,2013-03-13 20:42:00,
2013-03-13 16:52:00,50.0,29.0,29.70,NNW,338,3.0,15.0,44,0.00,,,-99.99,,2013-03-13 20:52:00,
2013-03-13 17:02:00,50.0,29.0,29.70,WNW,287,2.0,9.0,45,0.00,,,-99.99,,2013-03-13 21:02:00,
2013-03-13 17:12:00,50.0,29.0,29.70,WNW,287,2.0,9.0,45,0.00,,,-99.99,,2013-03-13 21:12:00,
2013-03-13 17:22:00,50.0,28.0,29.70,WNW,291,2.0,14.0,43,0.00,,,-99.99,,2013-03-13 21:22:00,
2013-03-13 17:33:00,50.0,28.0,29.70,NW,319,1.0,11.0,43,0.00,,,-99.99,,2013-03-13 21:33:00,
2013-03-13 17:42:00,50.0,28.0,29.70,NW,319,1.0,11.0,43,0.00,,,-99.99,,2013-03-13 21:42:00,
2013-03-13 17:52:00,50.0,28.0,29.70,NNW,342,2.0,11.0,42,0.00,,,-99.99,,2013-03-13 21:52:00,
2013-03-13 18:02:00,49.0,26.0,29.70,West,281,5.0,14.0,41,0.00,,,-99.99,,2013-03-13 22:02:00,
2013-03-13 18:12:00,49.0,26.0,29.70,West,281,5.0,14.0,41,0.00,,,-99.99,,2013-03-13 22:12:00,
2013-03-13 18:22:00,48.0,25.0,29.71,WNW,298,4.0,15.0,40,0.00,,,-99.99,,2013-03-13 22:22:00,
2013-03-13 18:32:00,47.0,24.0,29.72,WSW,257,3.0,13.0,40,0.00,,,-99.99,,2013-03-13 22:32:00,
2013-03-13 18:42:00,47.0,24.0,29.72,WSW,257,3.0,13.0,40,0.00,,,-99.99,,2013-03-13 22:42:00,
2013-03-13 18:52:00,47.0,25.0,29.73,NW,317,2.0,13.0,41,0.00,,,-99.99,,2013-03-13 22:52:00,
2013-03-13 19:02:00,46.0,24.0,29.74,West,275,1.0,17.0,41,0.00,,,-99.99,,2013-03-13 23:02:00,
2013-03-13 19:12:00,46.0,24.0,29.74,West,275,1.0,17.0,41,0.00,,,-99.99,,2013-03-13 23:12:00,
2013-03-13 19:22:00,45.0,23.0,29.75,WNW,302,1.0,11.0,41,0.00,,,-99.99,,2013-03-13 23:22:00,
2013-03-13 19:32:00,44.0,23.0,29.75,NW,308,1.0,6.0,43,0.00,,,-99.99,,2013-03-13 23:32:00,
2013-03-13 19:42:00,44.0,23.0,29.75,NW,308,1.0,6.0,43,0.00,,,-99.99,,2013-03-13 23:42:00,
2013-03-13 19:52:00,44.0,24.0,29.75,WNW,283,1.0,11.0,45,0.00,,,-99.99,,2013-03-13 23:52:00,
2013-03-13 20:02:00,44.0,24.0,29.76,WNW,287,0.0,10.0,45,0.00,,,-99.99,,2013-03-14 00:02:00,
2013-03-13 20:13:00,44.0,24.0,29.76,WNW,287,0.0,10.0,45,0.00,,,-99.99,,2013-03-14 00:13:00,
2013-03-13 20:22:00,43.0,24.0,29.77,NW,325,0.0,5.0,47,-99.99,,,-99.99,,2013-03-14 00:22:00,
2013-03-13 20:32:00,42.0,24.0,29.78,NW,325,0.0,3.0,49,-99.99,,,-99.99,,2013-03-14 00:32:00,
2013-03-13 20:42:00,42.0,24.0,29.78,NW,325,0.0,3.0,49,-99.99,,,-99.99,,2013-03-14 00:42:00,
2013-03-13 20:52:00,42.0,24.0,29.78,NW,325,0.0,3.0,49,-99.99,,,-99.99,,2013-03-14 00:52:00,
2013-03-13 21:02:00,42.0,24.0,29.78,NW,325,0.0,3.0,49,-99.99,,,-99.99,,2013-03-14 01:02:00,
2013-03-13 21:12:00,42.0,24.0,29.78,NW,325,0.0,3.0,49,-99.99,,,-99.99,,2013-03-14 01:12:00,